Location: Morlupo
(42.1333°N, 12.5000°E)
Time: 16:20:43
(UTC+00:00)

Cosmos 2150 Rocket - Pass Details

Date: 18 September 2020
Orbit: 749 x 808 km, 74.0° (Epoch: 25 October)

Event Time Altitude Azimuth Distance (km) Brightness Sun altitude
Rises 18:44:16 0° 188° (S) 3,249 7.1 -17.3°
Reaches altitude 10° 18:46:39 10° 185° (S) 2,335 6.4 -17.7°
Maximum altitude 18:51:53 62° 105° (ESE) 892 4.0 -18.6°
Drops below altitude 10° 18:57:14 10° 26° (NNE) 2,385 6.5 -19.6°
Sets 18:59:41 0° 24° (NNE) 3,325 7.3 -20.0°
